Regional Weather Roundup
Issued by NWS Wilmington, NC

Home | Current Version | Previous Version | Text Only | Print | Product List | Glossary On
Versions: 1 2 3 4 5 6 7 8 9 10 11 12 13 14 15 16 17 18 19 20 21 22 23 24 25 26 27 28 29 30 31 32 33 34 35 36 37 38 39 40 41 42 43 44 45 46 47 48 49 50
000
ASUS42 KILM 270913
RWRILM
RWRILM
REGIONAL HOURLY WEATHER ROUNDUP
NATIONAL WEATHER SERVICE WILMINGTON NC
500 AM EDT WED MAY 27 2015

NOTE: "FAIR" INDICATES FEW OR NO CLOUDS BELOW 12,000 FEET WITH NO
SIGNIFICANT WEATHER AND/OR OBSTRUCTIONS TO VISIBILITY.

...............WFO WILMINGTON COUNTY WARNING AREA...............

......COASTAL NC AND SC COUNTIES......

CITY           SKY/WX    TMP DP  RH WIND       PRES   REMARKS
WILMINGTON     CLOUDY    74  70  87 S5        30.22S
N MYRTLE BEACH NOT AVBL
MYRTLE BEACH   NOT AVBL

......INLAND NC AND SC COUNTIES.......

CITY           SKY/WX    TMP DP  RH WIND       PRES   REMARKS
LUMBERTON      MOCLDY    70  68  93 CALM      30.19S
ELIZABETHTOWN  MOCLDY    70  70 100 SE3       30.21S
WHITEVILLE     MOCLDY    71  69  93 CALM      30.20S
FLORENCE       PTCLDY    71  69  93 S5        30.19R
DARLINGTON     NOT AVBL

....................REST OF NORTH CAROLINA......................

.........EASTERN NC.........

CITY           SKY/WX    TMP DP  RH WIND       PRES   REMARKS
CAPE HATTERAS  PTCLDY    72  62  71 SW13      30.27R
JACKSONVILLE   CLOUDY    72  66  83 SE6       30.24R
MOREHEAD CITY  CLOUDY    73  67  81 S6        30.25S
KENANSVILLE    CLOUDY    71  69  95 CALM      30.23S
NEW BERN       CLOUDY    71  66  84 S3        30.25S
ELIZABETH CITY CLOUDY    71  66  84 S6        30.24S

.........CENTRAL NC.........

CITY           SKY/WX    TMP DP  RH WIND       PRES   REMARKS
RALEIGH DURHAM CLOUDY    71  67  87 S6        30.20S
ROCKY MOUNT    CLOUDY    72  69  90 S7        30.21S
ROANOKE RAPIDS NOT AVBL
FAYETTEVILLE   CLOUDY    71  68  90 SE5       30.20S
HOFFMAN        PTCLDY    67  65  93 S1        30.23S

.........WESTERN NC.........

CITY           SKY/WX    TMP DP  RH WIND       PRES   REMARKS
CHARLOTTE      MOCLDY    66  64  93 S5        30.21R
GREENSBORO     PTCLDY    66  65  96 S3        30.18F
HICKORY        NOT AVBL
BOONE          NOT AVBL
ASHEVILLE      NOT AVBL

.....................REST OF SOUTH CAROLINA.....................

.........EASTERN SC.........

CITY           SKY/WX    TMP DP  RH WIND       PRES   REMARKS
CHARLESTON     CLOUDY    73  69  87 S5        30.18S
BEAUFORT MCAS  MOCLDY    77  71  82 S3        30.17F
HILTON HEAD    MOCLDY    75  72  88 SE5       30.18F

.........CENTRAL SC.........

CITY           SKY/WX    TMP DP  RH WIND       PRES   REMARKS
COLUMBIA       MOCLDY    68  64  87 CALM      30.19R
ORANGEBURG     CLOUDY    69  67  93 CALM      30.19R
SUMTER SHAW    PTCLDY    68  66  93 CALM      30.18R

.........WESTERN SC.........

CITY           SKY/WX    TMP DP  RH WIND       PRES   REMARKS
GREENVILLE     NOT AVBL
ROCK HILL      CLOUDY    65  64  97 SW5       30.22R
ANDERSON       CLOUDY    67  65  93 CALM      30.20S
CLEMSON        NOT AVBL
GREENWOOD      CLOUDY    66  65  96 CALM      30.22R FOG


...................COASTAL AND OFFSHORE REPORTS..................

................LOCAL PIERS AND NC RESERVE................


STATION/POSITION TIME  SKY/WX   TEMP    WIND        PRES    VSBY
                                AIR SEA DIR/SP/G
                 (UTC)          (F)     (DEG/KT/KT) (MB)    (MI)
JOHNY MRCER PIER 0800            75 78  210/  7/  8 1023.0F
NC RESRV MASNBRO NOT AVBL
OCEAN CREST PIER 0902            75 78  120/  9/ 10 1022.5F
SPRINGMAID  PIER 0800            75 78  160/  8/  9 1022.8F


................COASTAL AND OFFSHORE BUOYS................


STATION/POSITION TIME  SKY/WX   TEMP    WIND        PRES    VSBY
                                AIR SEA DIR/SP/G
                 (UTC)          (F)     (DEG/KT/KT) (MB)    (MI)
DIMNDSHOAL 41025 0850            74 78  210/ 12/ 16 1024.9S
WVE H/P(F/S)=  3/ 5 WND WVE H/P(F/S)=  2/ 5 SWL H/P/D(F/S/D)=  2/120/ 6

CAPE LOOKOUT     0900            73     210/  4/  5 1024.2R
ONSLOW BAY 41036 NOT AVBL
5 WRITEBCH 41038 0808            76 76  210/ 10/ 12 1023.3F
MASONBORO  41110 0819               76                N/A
WVE H/P(F/S)=  3/ 5 WND WVE H/P(F/S)=  3/ 5

WILM HARBR 41108 0811               76                N/A
WVE H/P(F/S)=  3/ 6 WND WVE H/P(F/S)=  3/ 6

27WRITEBCH 41037 0800            72 76  190/ 10/ 12   N/A
FRYING PAN 41013 0850            77 74  210/  8/ 10 1024.1S
WVE H/P(F/S)=  3/ 7 WND WVE H/P(F/S)=  2/ 4 SWL H/P/D(F/S/D)=  3/110/ 7

SUNST NRSH 41024 0808            74     190/ 10/ 14 1023.1F
CAPRS NRSH 41029 0808            76     190/  6/ 10 1022.5F
EDISTO     41004 0850            78 76  150/ 12/ 14 1021.9F
WVE H/P(F/S)=  3/ 7 WND WVE H/P(F/S)=  2/ 5 SWL H/P/D(F/S/D)=  3/ 7



..........OFFSHORE BUOYS BEYOND 100 NM OFFSHORE...........
.....IN A TRIANGLE---HAT TO BERMUDA TO BAHAMAS TO HAT.....


STATION/POSITION TIME  SKY/WX   TEMP    WIND        PRES    VSBY
                                AIR SEA DIR/SP/G
                 (UTC)          (F)     (DEG/KT/KT) (MB)    (MI)
150E HAT   41001 NOT AVBL
W BERMUDA  41048 0850            71 74   80/ 12/ 16 1024.6R
WVE H/P(F/S)=  6/ 8 WND WVE H/P(F/S)=  3/ 5 SWL H/P/D(F/S/D)=  5/100/ 8

ATLANTIC S 41049 0850            71 78  360/ 14/ 16 1015.1F
WVE H/P(F/S)=  8/ 8 WND WVE H/P(F/S)=  5/ 6 SWL H/P/D(F/S/D)=  7/ 30/ 8

E BAHAMAS  41046 0850            78 81   40/ 16/ 19 1016.2R
WVE H/P(F/S)=  8/ 8 WND WVE H/P(F/S)=  5/ 7 SWL H/P/D(F/S/D)=  5/ 60/ 8

NE BAHAMAS 41047 0850            74 77   60/ 16/ 19 1020.4R
WVE H/P(F/S)=  7/ 8 WND WVE H/P(F/S)=  5/ 5 SWL H/P/D(F/S/D)=  5/ 80/ 8

120E CANVRL41010 0820            77 81   90/ 10/ 12 1021.9F

END


USA.gov is the U.S. government's official web portal to all federal, state and local government web resources and services.